Escatawpa, MS

6:14 AM CST on February 11, 2016 (GMT -0600)
Lott International

Weather History for KPQL - February, 2013

Change the Weather History Date:

Thursday, February 7, 2013

  Actual Average Record
Temperature  
Mean Temperature 64 °F -  
Max Temperature 75 °F 57 °F 78 °F (1957)
Min Temperature 53 °F 39 °F 21 °F (1988)
Degree Days  
Heating Degree Days 1    
Growing Degree Days 14 (Base 50)    
Moisture  
Dew Point 58 °F    
Average Humidity 87    
Maximum Humidity 100    
Minimum Humidity 54    
Precipitation  
Precipitation 1.49 in - - ()
Sea Level Pressure  
Sea Level Pressure 29.89 in    
Wind  
Wind Speed 8 mph (NE)    
Max Wind Speed 21 mph    
Max Gust Speed 28 mph    
Visibility 6 miles    
Events Fog , Rain , Thunderstorm    
Averages and records for this station are not official NWS values.
T = Trace of Precipitation, MM = Missing Value Source: NWS Daily Summary

Daily Weather History Graph

Daily Weather History Graph

Search for Another Location

Airport or City:

Trip Planner

Search our weather history database for the weather conditions in past years. The results will help you decide how hot, cold, wet, or windy it might be!

Date:

Astronomy

Feb. 07, 2013 Rise Set
Actual Time 6:40 AM CST 5:36 PM CST
Civil Twilight 6:16 AM CST 6:00 PM CST
Nautical Twilight 5:47 AM CST 6:29 PM CST
Astronomical Twilight 5:19 AM CST 6:57 PM CST
Moon 4:13 AM CST (2/7) 3:05 PM CST (2/7)
Length of Visible Light 11h 44m
Length of Day
10h 55m
Waning Crescent, 9% of the Moon is Illuminated
Feb 7
Waning Crescent
Feb 10
New
Feb 17
First Quarter
Feb 25
Full
Mar 4
Last Quarter

Hourly Weather History & Observations

Time (CST) Temp. Dew Point Humidity Pressure Visibility Wind Dir Wind Speed Gust Speed Precip Events Conditions
12:53 AM 60.1 °F 57.9 °F 93% 30.00 in 8.0 mi NE 3.5 mph - 0.04 in Rain Light Rain
1:53 AM 61.0 °F 59.0 °F 93% 29.96 in 10.0 mi ENE 4.6 mph - 0.00 in   Overcast
2:10 AM 60.8 °F 59.0 °F 94% 29.98 in 9.0 mi Calm Calm - 0.00 in Rain Light Rain
2:34 AM 60.8 °F 59.0 °F 94% 29.94 in 4.0 mi East 10.4 mph - 0.07 in Rain Rain
2:48 AM 60.8 °F 59.0 °F 94% 29.95 in 5.0 mi ESE 6.9 mph - 0.11 in Rain Rain
2:53 AM 61.0 °F 59.0 °F 93% 29.96 in 5.0 mi ESE 5.8 mph - 0.12 in Rain Rain
3:14 AM 62.6 °F 60.8 °F 94% 29.90 in 5.0 mi ENE 8.1 mph - 0.05 in Rain Rain
3:25 AM 62.6 °F 60.8 °F 94% 29.86 in 6.0 mi ESE 17.3 mph 21.9 mph 0.07 in Rain Rain
3:34 AM 62.6 °F 60.8 °F 94% 29.87 in 5.0 mi East 11.5 mph 26.5 mph 0.08 in Rain Rain
3:53 AM 62.1 °F 60.1 °F 93% 29.87 in 10.0 mi ESE 12.7 mph 26.5 mph 0.09 in Rain Light Rain
4:11 AM 62.6 °F 60.8 °F 94% 29.89 in 10.0 mi East 5.8 mph - 0.00 in Rain Light Rain
4:53 AM 62.1 °F 60.1 °F 93% 29.85 in 5.0 mi ENE 10.4 mph - 0.11 in Rain Heavy Rain
5:07 AM 62.6 °F 60.8 °F 94% 29.83 in 2.5 mi East 9.2 mph 17.3 mph 0.10 in Rain Heavy Rain
5:23 AM 62.6 °F 60.8 °F 94% 29.83 in 3.0 mi East 10.4 mph - 0.24 in Rain Heavy Rain
5:34 AM 62.6 °F 60.8 °F 94% 29.83 in 2.5 mi East 8.1 mph - 0.33 in Rain Heavy Rain
5:38 AM 62.6 °F 60.8 °F 94% 29.82 in 3.0 mi East 8.1 mph - 0.34 in Rain Heavy Rain
5:45 AM 62.6 °F 60.8 °F 94% 29.82 in 3.0 mi East 15.0 mph 21.9 mph 0.38 in Rain Heavy Rain
5:53 AM 62.1 °F 60.1 °F 93% 29.81 in 3.0 mi East 10.4 mph 21.9 mph 0.41 in Rain Heavy Rain
6:05 AM 62.6 °F 60.8 °F 94% 29.80 in 3.0 mi East 10.4 mph 19.6 mph 0.07 in Rain Heavy Rain
6:32 AM 62.6 °F 60.8 °F 94% 29.84 in 2.5 mi NW 9.2 mph - 0.23 in Rain , Thunderstorm Heavy Rain
6:42 AM 62.6 °F 60.8 °F 94% 29.83 in 1.8 mi North 17.3 mph - 0.37 in Rain , Thunderstorm Heavy Rain
6:44 AM 62.6 °F 60.8 °F 94% 29.83 in 2.0 mi NNW 16.1 mph 23.0 mph 0.37 in Rain Heavy Rain
6:49 AM 62.6 °F 60.8 °F 94% 29.84 in 3.0 mi NNW 17.3 mph 23.0 mph 0.39 in Rain Rain
6:53 AM 61.0 °F 59.0 °F 93% 29.84 in 4.0 mi North 18.4 mph 25.3 mph 0.43 in Rain Heavy Rain
7:01 AM 60.8 °F 59.0 °F 94% 29.84 in 2.0 mi North 20.7 mph 27.6 mph 0.12 in Rain , Thunderstorm Heavy Rain
7:09 AM 60.8 °F 57.2 °F 88% 29.84 in 2.0 mi North 18.4 mph 26.5 mph 0.21 in Rain , Thunderstorm Heavy Rain
7:23 AM 60.8 °F 57.2 °F 88% 29.86 in 4.0 mi North 15.0 mph 25.3 mph 0.29 in Rain , Thunderstorm Heavy Rain
7:28 AM 60.8 °F 57.2 °F 88% 29.86 in 6.0 mi North 18.4 mph 26.5 mph 0.29 in Rain Rain
7:36 AM 60.8 °F 57.2 °F 88% 29.86 in 10.0 mi North 18.4 mph 27.6 mph 0.29 in Rain Light Rain
7:48 AM 60.8 °F 57.2 °F 88% 29.86 in 10.0 mi North 17.3 mph 25.3 mph 0.29 in Rain Light Rain
7:53 AM 61.0 °F 57.9 °F 90% 29.86 in 10.0 mi NNE 16.1 mph 27.6 mph 0.29 in Rain Light Rain
8:53 AM 63.0 °F 57.9 °F 84% 29.85 in 10.0 mi NNE 13.8 mph 20.7 mph 0.00 in   Scattered Clouds
9:53 AM 66.0 °F 57.9 °F 75% 29.86 in 10.0 mi ENE 12.7 mph - N/A   Clear
10:53 AM 71.1 °F 57.0 °F 61% 29.89 in 10.0 mi NNE 8.1 mph - N/A   Clear
11:53 AM 73.0 °F 57.0 °F 57% 29.89 in 10.0 mi NNW 5.8 mph - N/A   Clear
12:53 PM 75.9 °F 57.9 °F 54% 29.88 in 10.0 mi NNW 5.8 mph - N/A   Scattered Clouds
1:53 PM 73.9 °F 57.0 °F 55% 29.86 in 10.0 mi West 8.1 mph - N/A   Mostly Cloudy
2:53 PM 75.9 °F 59.0 °F 56% 29.86 in 10.0 mi NNW 6.9 mph - N/A   Mostly Cloudy
3:53 PM 73.9 °F 57.9 °F 57% 29.87 in 10.0 mi Variable 6.9 mph - N/A   Mostly Cloudy
4:53 PM 72.0 °F 57.0 °F 59% 29.89 in 10.0 mi NW 4.6 mph - N/A   Clear
5:53 PM 66.9 °F 55.9 °F 68% 29.91 in 10.0 mi NW 4.6 mph - N/A   Clear
6:53 PM 63.0 °F 55.9 °F 78% 29.92 in 10.0 mi Calm Calm - N/A   Clear
7:53 PM 57.9 °F 55.0 °F 90% 29.94 in 10.0 mi Calm Calm - N/A   Clear
8:53 PM 57.0 °F 54.0 °F 89% 29.95 in 10.0 mi Calm Calm - N/A   Clear
9:53 PM 54.0 °F 53.1 °F 97% 29.95 in 6.0 mi Calm Calm - N/A   Clear
9:59 PM 53.6 °F 53.6 °F 100% 29.95 in 1.8 mi Calm Calm - N/A   Clear
10:15 PM 53.6 °F 53.6 °F 100% 29.95 in 3.0 mi Calm Calm - N/A   Clear
10:53 PM 54.0 °F 53.1 °F 97% 29.96 in 10.0 mi Calm Calm - N/A   Unknown
11:13 PM 53.6 °F 51.8 °F 94% 29.96 in 1.5 mi Calm Calm - N/A   Clear
11:51 PM 53.6 °F 51.8 °F 94% 29.96 in 0.5 mi Calm Calm - N/A Fog Fog
11:53 PM 53.1 °F 51.1 °F 93% 29.96 in 0.5 mi Calm Calm - N/A Fog Fog